Regional Weather Roundup
Issued by NWS

Home | Current Version | Previous Version | Text Only | Print | Product List | Glossary On
Versions: 1 2 3 4 5 6 7 8 9 10 11 12 13 14 15 16 17 18 19 20 21 22 23 24 25 26 27 28 29 30 31 32 33 34 35 36 37 38 39 40 41 42 43 44 45 46 47 48 49 50
000
ASUS46 KSTO 300215
RWRCA

NORTHERN AND CENTRAL CA REGIONAL WEATHER ROUNDUP
NATIONAL WEATHER SERVICE SACRAMENTO CA
700 PM PDT MON MAY 29 2017

NOTE: FAIR INDICATES FEW OR NO CLOUDS BELOW 12,000 FEET WITH NO
SIGNIFICANT WEATHER AND/OR OBSTRUCTIONS TO VISIBILITY.

CAZ001-003-300300-
NORTHWEST AREA

CITY           SKY/WX    TMP DP  RH WIND       PRES   REMARKS
CRESCENT CITY  CLOUDY    53  52  96 NW13      30.05S
UKIAH          SUNNY     70  49  47 N12G17    29.90R
$$

CAZ006-505>513-300300-
BAY AREA

CITY           SKY/WX    TMP DP  RH WIND       PRES   REMARKS
SANTA ROSA     SUNNY     67  53  61 SE13      29.86S
SAN RAFAEL     N/A       62  MM  MM MISG
NAPA           SUNNY     66  52  60 SW14      29.89R
CONCORD        SUNNY     63  51  65 S21       29.89R
OAKLAND CITY   N/A      MM  MM  MM MISG
OAKLAND        CLOUDY    58  52  80 W23G30    29.95S
SAN FRAN CITY  N/A       55  MM  80 MISG
SAN FRAN ARPT  CLOUDY    56  49  77 W20       29.95S
LIVERMORE      SUNNY     59  50  72 W15       29.92R
HAYWARD        CLOUDY    57  48  72 W9        29.96R
REDWOOD CITY   N/A       59  MM  74 MISG
MOFFETT ARPT   SUNNY     61  51  70 N13       29.95R
SAN JOSE ARPT  MOSUNNY   61  53  75 NW16      29.95R
$$
CAZ034-037-514>518-300300-
CENTRAL COAST

CITY           SKY/WX    TMP DP  RH WIND       PRES   REMARKS
WATSONVILLE    SUNNY     62  55  77 E7        29.93R
SALINAS        CLOUDY    58  51  78 SW18      29.96R
MONTEREY       CLOUDY    56  51  84 W13       29.99R
SAN LUIS OBISP SUNNY     60  51  72 NW17      29.89S
SANTA MARIA    SUNNY     56  52  86 NW16      29.91S FOG
$$
CAZ015-016-300300-
NORTHERN SACRAMENTO VALLEY

CITY           SKY/WX    TMP DP  RH WIND       PRES   REMARKS
REDDING        MOSUNNY   90  58  33 S9        29.79R
RED BLUFF      MOSUNNY   89  60  37 S10       29.79S
OROVILLE       MOSUNNY   86  59  39 S8        29.80F
$$
CAZ016>018-300300-
SOUTHERN SACRAMENTO VALLEY

CITY           SKY/WX    TMP DP  RH WIND       PRES   REMARKS
AUBURN         MOSUNNY   82  57  42 W6        29.87S
BEALE AFB      MOSUNNY   83  62  48 CALM      29.78F
LINCOLN        FAIR      82  54  36 SW9       29.79S
MARYSVILLE     MOSUNNY   85  60  42 SW8       29.79F
SAC INTL ARPT  PTSUNNY   79  61  53 S13       29.80S
MATHER AIRPORT MOSUNNY   81  57  44 S9        29.82S
DOWNTOWN SAC   N/A       80  MM  MM MISG
SAC EXEC ARPT  MOSUNNY   76  58  53 SW12      29.82S
VACAVILLE      SUNNY     78  57  48 SW12G17   29.82R
$$
CAZ019>021-300300-
SAN JOAQUIN VALLEY

CITY           SKY/WX    TMP DP  RH WIND       PRES   REMARKS
STOCKTON       MOSUNNY   77  53  43 W14       29.83S
MODESTO        MOSUNNY   80  53  39 NW13      29.82R
MERCED         PTSUNNY   82  57  42 NW10      29.80S
LEMOORE        PTSUNNY   86  43  22 N16       29.78F
FRESNO         PTSUNNY   85  48  27 NW14      29.78F
HANFORD        PTSUNNY   86  53  32 NW15      29.78S
PORTERVILLE      N/A     90  59  35 NW9       29.78S
BAKERSFIELD    MOSUNNY   90  53  28 NW9       29.78S
$$
CAZ011-012-071-300300-
NORTHERN MOUNTAINS

CITY           SKY/WX    TMP DP  RH WIND       PRES   REMARKS
YREKA          PTSUNNY   82  50  32 N16G24    29.87R
MOUNT SHASTA   PTSUNNY   80  44  27 CALM      29.95R
ALTURAS        PTSUNNY   78  35  21 W25G32    29.99R
$$
CAZ011-012-071-300300-
SIERRA NEVADA MTNS

CITY           SKY/WX    TMP DP  RH WIND       PRES   REMARKS
BLUE CANYON    PTSUNNY   71  41  33 CALM      30.09S
TRUCKEE        PTSUNNY   64  34  32 N3        30.11S
TAHOE VLY ARPT LGT RAIN  65  35  33 E22G32    30.15R
MAMMOTH LAKES  FAIR      67  29  23 SW6G17    30.14S
$$




USA.gov is the U.S. government's official web portal to all federal, state and local government web resources and services.